Location: Allison's Woods
(35.8809°N, 80.8140°W)
Time: 19:33:38
(UTC-04:00)

Iridium 39 - Visible Passes

Search period start: 29 April 2016 00:00
Search period end: 09 May 2016 00:00
Orbit: 776 x 779 km, 86.4° (Epoch: 29 April)

Date Brightness Start Highest point End Pass type
(mag) Time Alt. Az. Time Alt. Az. Time Alt. Az.
29 Apr 8.5 01:08:43 15° NW 01:08:43 15° NW 01:10:05 10° NNW visible
29 Apr 8.2 22:54:36 14° NE 22:54:36 14° NE 22:55:37 10° NE visible
30 Apr 8.1 00:35:03 24° NNW 00:35:03 24° NNW 00:37:18 10° NNW visible
01 May 7.6 00:01:23 31° N 00:01:23 31° N 00:04:02 10° N visible
01 May 7.5 23:27:43 29° NNE 23:27:43 29° NNE 23:30:24 10° NNE visible
02 May 8.6 01:08:09 13° NW 01:08:09 13° NW 01:09:15 10° NW visible
02 May 7.7 22:54:01 21° NE 22:54:01 21° NE 22:56:21 10° NNE visible
03 May 8.1 00:34:29 22° NW 00:34:29 22° NW 00:37:02 10° NNW visible
03 May 8.1 22:20:19 13° ENE 22:20:19 13° ENE 22:21:31 10° NE visible
04 May 7.4 00:00:46 35° NNW 00:00:46 35° NNW 00:04:01 10° N visible
04 May 6.9 23:27:03 44° N 23:27:03 44° N 23:30:36 10° N visible
05 May 7.0 22:53:20 34° NE 22:53:20 34° NE 22:56:48 10° NNE visible
06 May 8.2 00:33:47 18° WNW 00:33:47 18° WNW 00:36:29 10° NNW visible
06 May 7.6 22:19:36 21° ENE 22:19:36 21° ENE 22:22:32 10° NNE visible
07 May 7.4 00:00:02 33° WNW 00:00:02 33° WNW 00:03:51 10° NNW visible
07 May 8.1 21:45:50 11° ENE 21:45:50 11° ENE 21:46:49 10° ENE visible
07 May 6.5 23:26:17 59° NW 23:26:17 59° NW 23:30:40 10° N visible
08 May 6.2 22:52:31 57° ENE 22:52:31 57° ENE 22:57:06 10° N visible
